Location: Banios
(43.0451°N, 0.2335°E)
Time: 13:32:38
(UTC+00:00)

ATLAS CENTAUR R/B - Pass Details

Date: 25 January 2021
Orbit: 471 x 674 km, 64.6° (Epoch: 24 February)

Event Time Altitude Azimuth Distance (km) Brightness Sun altitude
Exits shadow 04:25:33 15° 98° (E) 1,337 4.0 -32.0°
Drops below altitude 10° 04:27:09 10° 73° (ENE) 1,637 4.6 -31.7°
Sets 04:29:52 0° 51° (NE) 2,519 5.4 -31.2°
